CW2621 Weather Reports


Display with metric or nautical units.
time (UTC)temp
F
wind
direction
speed
MPH
gust
MPH
rain 1hr
in
rain 24hr
in
rain mn
in
humidity
%
barometer
mb
20260504185550 70 205 2.0 8.0 0.00 0.00 0.00 34 1010.9
20260504185050 70 237 4.0 8.0 0.00 0.00 0.00 32 1011.0
20260504184550 70 151 2.0 8.0 0.00 0.00 0.00 33 1010.9
20260504184049 70 45 3.0 8.0 0.00 0.00 0.00 34 1010.9
20260504183550 69 132 2.0 10.0 0.00 0.00 0.00 34 1011.0
20260504183111 69 130 2.0 10.0 0.00 0.00 0.00 32 1011.0
20260504182550 69 34 2.0 11.0 0.00 0.00 0.00 35 1011.1
20260504182050 69 184 2.0 11.0 0.00 0.00 0.00 35 1011.2
20260504181550 69 75 6.0 9.0 0.00 0.00 0.00 33 1011.2
20260504181049 69 160 4.0 9.0 0.00 0.00 0.00 35 1011.3
20260504180549 69 179 2.0 10.0 0.00 0.00 0.00 32 1011.4
20260504180050 68 113 4.0 10.0 0.00 0.00 0.00 32 1011.4
20260504175550 68 117 1.0 9.0 0.00 0.00 0.00 34 1011.5
20260504175050 68 139 2.0 10.0 0.00 0.00 0.00 31 1011.6
20260504174611 68 105 4.0 10.0 0.00 0.00 0.00 34 1011.7
20260504174110 68 75 5.0 8.0 0.00 0.00 0.00 33 1011.7
20260504173549 68 154 2.0 8.0 0.00 0.00 0.00 34 1011.8
20260504173051 68 112 4.0 9.0 0.00 0.00 0.00 33 1011.9
20260504172549 68 47 4.0 9.0 0.00 0.00 0.00 32 1011.9
20260504172050 67 122 0.0 9.0 0.00 0.00 0.00 34 1011.9
20260504171550 67 108 4.0 9.0 0.00 0.00 0.00 32 1011.8
20260504171050 67 109 3.0 13.0 0.00 0.00 0.00 31 1012.0
20260504170550 67 44 6.0 13.0 0.00 0.00 0.00 32 1011.9
20260504151049 63 144 2.0 13.0 0.00 0.00 0.00 37 1013.2
20260504150550 62 84 8.0 13.0 0.00 0.00 0.00 35 1013.2
20260504141050 60 295 4.0 8.0 0.00 0.00 0.00 42 1013.8
20260504140550 60 70 3.0 8.0 0.00 0.00 0.00 41 1013.7
20260504130550 57 106 2.0 7.0 0.00 0.00 0.00 47 1014.2
20260504110549 46 157 1.0 2.0 0.00 0.00 0.00 61 1014.2
20260504100550 44 307 0.0 2.0 0.00 0.00 0.00 64 1013.7
20260504081550 46 0 0.0 4.0 0.00 0.00 0.00 58 1013.1
20260504081050 46 54 3.0 4.0 0.00 0.00 0.00 56 1013.2
20260504080550 46 149 1.0 2.0 0.00 0.00 0.00 56 1013.2
20260504060111 46 245 0.0 2.0 0.00 0.00 0.00 54 1013.6
20260504050550 44 262 1.0 3.0 0.00 0.00 0.00 56 1013.4
20260504045611 44 276 0.0 3.0 0.00 0.00 0.00 54 1013.5
20260504045050 44 263 2.0 3.0 0.00 0.00 0.00 55 1013.5
20260504044550 44 311 1.0 3.0 0.00 0.00 0.00 54 1013.5
20260504044050 44 249 1.0 2.0 0.00 0.00 0.00 54 1013.5
20260504043550 44 275 2.0 2.0 0.00 0.00 0.00 54 1013.6
20260504043050 44 278 2.0 2.0 0.00 0.00 0.00 54 1013.6
20260504042550 44 251 1.0 3.0 0.00 0.00 0.00 54 1013.6
20260504042050 44 250 2.0 3.0 0.00 0.00 0.00 55 1013.6
20260504041551 44 240 1.0 3.0 0.00 0.00 0.00 55 1013.6
20260504041050 44 276 1.0 3.0 0.00 0.00 0.00 56 1013.5
20260504040550 44 335 0.0 3.0 0.00 0.00 0.00 55 1013.4
20260504040049 44 307 1.0 3.0 0.00 0.00 0.00 54 1013.4
20260504035550 44 345 0.0 3.0 0.00 0.00 0.00 53 1013.3
20260504035050 44 321 0.0 2.0 0.00 0.00 0.00 55 1013.3
20260504034550 44 278 0.0 2.0 0.00 0.00 0.00 54 1013.3
20260504034050 44 270 0.0 2.0 0.00 0.00 0.00 54 1013.3
20260504033611 44 262 1.0 2.0 0.00 0.00 0.00 54 1013.2
20260504033111 44 254 1.0 2.0 0.00 0.00 0.00 52 1013.1
20260504032550 44 271 1.0 2.0 0.00 0.00 0.00 55 1013.2
20260504032111 44 260 1.0 2.0 0.00 0.00 0.00 54 1013.2
20260504031550 44 0 0.0 2.0 0.00 0.00 0.00 56 1013.3
20260504031050 44 260 1.0 2.0 0.00 0.00 0.00 54 1013.4
20260504030549 44 267 1.0 2.0 0.00 0.00 0.00 55 1013.4
20260504030111 44 307 1.0 2.0 0.00 0.00 0.00 56 1013.4
20260504025550 44 307 1.0 2.0 0.00 0.00 0.00 55 1013.2
20260504025050 44 307 2.0 2.0 0.00 0.00 0.00 55 1013.2
20260504024610 45 314 1.0 2.0 0.00 0.00 0.00 55 1013.2
20260504024049 45 314 0.0 2.0 0.00 0.00 0.00 54 1013.1
20260504023550 45 314 1.0 2.0 0.00 0.00 0.00 55 1013.2
20260504023111 45 314 1.0 2.0 0.00 0.00 0.00 54 1013.1
20260504022550 45 314 1.0 2.0 0.00 0.00 0.00 54 1013.1
20260504022050 45 44 2.0 2.0 0.00 0.00 0.00 54 1013.1
20260504021550 45 44 1.0 2.0 0.00 0.00 0.00 53 1013.1
20260504021050 45 44 0.0 2.0 0.00 0.00 0.00 53 1013.0
20260504020549 45 44 1.0 2.0 0.00 0.00 0.00 53 1013.1
20260504020050 45 44 2.0 2.0 0.00 0.00 0.00 53 1013.0
20260504015611 45 45 1.0 2.0 0.00 0.00 0.00 53 1012.9
20260504015050 45 45 1.0 3.0 0.00 0.00 0.00 51 1013.0
20260504014550 45 45 2.0 3.0 0.00 0.00 0.00 53 1012.9
20260504014050 45 73 1.0 2.0 0.00 0.00 0.00 54 1012.9
20260504013550 45 145 1.0 2.0 0.00 0.00 0.00 53 1012.9
20260504013051 45 145 1.0 2.0 0.00 0.00 0.00 54 1012.7
20260504012550 45 145 1.0 1.0 0.00 0.00 0.00 54 1012.7
20260504012050 45 0 0.0 1.0 0.00 0.00 0.00 54 1012.6
20260504011611 45 145 1.0 1.0 0.00 0.00 0.00 53 1012.6
20260504011050 45 145 0.0 1.0 0.00 0.00 0.00 55 1012.6
20260504010549 45 145 0.0 1.0 0.00 0.00 0.00 53 1012.4
20260504010050 45 145 1.0 1.0 0.00 0.00 0.00 54 1012.4
20260504005611 45 136 0.0 1.0 0.00 0.00 0.00 53 1012.3
20260504005049 46 136 0.0 1.0 0.00 0.00 0.00 53 1012.3
20260504004550 46 136 1.0 1.0 0.00 0.00 0.00 52 1012.1
20260504004050 46 136 1.0 1.0 0.00 0.00 0.00 52 1012.1
20260504003550 46 0 0.0 1.0 0.00 0.00 0.00 52 1012.0
20260504003050 46 136 1.0 1.0 0.00 0.00 0.00 51 1011.9
20260504002550 46 0 0.0 1.0 0.00 0.00 0.00 50 1011.8
20260504002050 47 136 0.0 1.0 0.00 0.00 0.00 51 1011.7
20260504001549 47 0 0.0 1.0 0.00 0.00 0.00 50 1011.7
20260504001049 48 0 0.0 1.0 0.00 0.00 0.00 49 1011.6
20260504000550 48 0 0.0 1.0 0.00 0.00 0.00 47 1011.5
20260504000050 49 0 0.0 1.0 0.00 0.00 0.00 46 1011.4
20260503235549 50 0 0.0 1.0 0.00 0.00 0.00 42 1011.4
20260503235050 50 0 0.0 1.0 0.00 0.00 0.00 41 1011.4
20260503234550 50 136 1.0 1.0 0.00 0.00 0.00 39 1011.4
20260503234050 51 0 0.0 4.0 0.00 0.00 0.00 39 1011.3
20260503233550 51 136 0.0 4.0 0.00 0.00 0.00 39 1011.3
20260503233050 51 144 2.0 2.0 0.00 0.00 0.00 38 1011.3
20260503232550 51 161 0.0 4.0 0.00 0.00 0.00 40 1011.2
20260503232049 52 97 0.0 4.0 0.00 0.00 0.00 39 1011.2
20260503231550 52 131 1.0 4.0 0.00 0.00 0.00 38 1011.2
20260503231113 52 150 3.0 4.0 0.00 0.00 0.00 38 1011.2
20260503230611 52 150 1.0 5.0 0.00 0.00 0.00 39 1011.2
20260503230050 52 167 2.0 5.0 0.00 0.00 0.00 36 1011.0
20260503225550 52 169 1.0 5.0 0.00 0.00 0.00 38 1011.1
20260503225052 52 72 3.0 6.0 0.00 0.00 0.00 40 1011.1
20260503224550 52 146 1.0 6.0 0.00 0.00 0.00 39 1011.1
20260503224050 52 129 2.0 4.0 0.00 0.00 0.00 38 1011.1
20260503223549 52 139 1.0 11.0 0.00 0.00 0.00 38 1011.0
20260503223050 52 165 2.0 11.0 0.00 0.00 0.00 39 1010.9
20260503222550 52 150 8.0 10.0 0.00 0.00 0.00 38 1010.9
20260503222050 52 153 2.0 8.0 0.00 0.00 0.00 40 1010.9
20260503221550 52 170 4.0 8.0 0.00 0.00 0.00 41 1010.7
20260503221052 52 154 2.0 12.0 0.00 0.00 0.00 41 1010.9
20260503220550 52 206 4.0 12.0 0.00 0.00 0.00 40 1011.0
20260503220050 52 141 3.0 10.0 0.00 0.00 0.00 39 1011.0
20260503215549 52 134 6.0 10.0 0.00 0.00 0.00 39 1011.0
20260503215050 52 143 1.0 10.0 0.00 0.00 0.00 40 1011.0
20260503214550 52 141 2.0 12.0 0.00 0.00 0.00 38 1011.0
20260503214050 51 145 4.0 12.0 0.00 0.00 0.00 40 1011.0
20260503213550 51 157 3.0 14.0 0.00 0.00 0.00 39 1010.9
20260503213050 51 205 5.0 14.0 0.00 0.00 0.00 39 1011.0
20260503212550 51 137 6.0 13.0 0.00 0.00 0.00 40 1010.8
20260503212050 51 183 5.0 10.0 0.00 0.00 0.00 41 1010.8
20260503211550 51 145 2.0 7.0 0.00 0.00 0.00 40 1010.7
20260503211111 52 146 5.0 10.0 0.00 0.00 0.00 40 1010.7
20260503210611 52 142 3.0 11.0 0.00 0.00 0.00 39 1010.8
20260503210111 52 188 4.0 11.0 0.00 0.00 0.00 39 1010.7
20260503205550 52 117 4.0 11.0 0.00 0.00 0.00 41 1010.6
20260503205111 52 155 3.0 10.0 0.00 0.00 0.00 41 1010.5
20260503204550 52 95 2.0 8.0 0.00 0.00 0.00 40 1010.6
20260503204050 52 195 6.0 8.0 0.00 0.00 0.00 40 1010.6
20260503203550 53 157 3.0 10.0 0.00 0.00 0.00 39 1010.4
20260503203112 52 163 2.0 18.0 0.00 0.00 0.00 46 1010.4
20260503202550 51 210 8.0 18.0 0.00 0.00 0.00 40 1010.4
20260503202050 52 171 2.0 12.0 0.00 0.00 0.00 40 1010.5
20260503201611 51 202 7.0 12.0 0.00 0.00 0.00 42 1010.5
20260503201050 51 146 3.0 9.0 0.00 0.00 0.00 40 1010.4
20260503200550 51 115 3.0 9.0 0.00 0.00 0.00 42 1010.3
20260503200050 51 105 3.0 9.0 0.00 0.00 0.00 41 1010.3
20260503195611 50 114 2.0 9.0 0.00 0.00 0.00 39 1010.4
20260503195050 51 146 4.0 10.0 0.00 0.00 0.00 40 1010.3
20260503194611 51 110 5.0 10.0 0.00 0.00 0.00 42 1010.4
20260503194050 51 182 4.0 11.0 0.00 0.00 0.00 39 1010.3
20260503193549 51 113 4.0 11.0 0.00 0.00 0.00 42 1010.3
20260503193111 51 134 3.0 11.0 0.00 0.00 0.00 41 1010.3
20260503192550 51 121 6.0 11.0 0.00 0.00 0.00 42 1010.3
20260503192050 51 125 1.0 10.0 0.00 0.00 0.00 41 1010.2
20260503191611 51 186 4.0 10.0 0.00 0.00 0.00 39 1010.1
20260503191050 52 77 4.0 8.0 0.00 0.00 0.00 39 1010.2
20260503190550 52 135 2.0 10.0 0.00 0.00 0.00 40 1010.2
20260503190050 52 137 3.0 10.0 0.00 0.00 0.00 40 1010.3